Hourly Weather Murlatinamahi

Today, 27 September, Monday

Time Temperature Precipitation Wind Pressure Humidity
00:00 +3°C° 0 mm 3 mps 603 mmHg 62%
01:00 +4°C° 0 mm 2 mps 602 mmHg 64%
02:00 +3°C° 0 mm 2 mps 602 mmHg 66%
03:00 +3°C° 0 mm 2 mps 602 mmHg 68%
04:00 +3°C° 0 mm 2 mps 602 mmHg 68%
05:00 +3°C° 0 mm 2 mps 602 mmHg 69%
06:00 +3°C° 0 mm 2 mps 602 mmHg 69%
07:00 +5°C° 0 mm 2 mps 602 mmHg 65%
08:00 +7°C° 0 mm 2 mps 603 mmHg 61%
09:00 +9°C° 0 mm 2 mps 603 mmHg 57%
10:00 +10°C° 0 mm 2 mps 604 mmHg 56%
11:00 +11°C° 0 mm 3 mps 604 mmHg 55%
12:00 +11°C° 0 mm 3 mps 604 mmHg 54%
13:00 +11°C° 0 mm 3 mps 603 mmHg 58%
14:00 +10°C° 0 mm 3 mps 603 mmHg 62%
15:00 +10°C° 0 mm 3 mps 603 mmHg 66%
16:00 +8°C° 0 mm 2 mps 602 mmHg 73%
17:00 +7°C° 0 mm 2 mps 602 mmHg 80%
18:00 +7°C° 0 mm 1 mps 602 mmHg 87%
19:00 +7°C° 0 mm 1 mps 602 mmHg 88%
20:00 +6°C° 0 mm 1 mps 602 mmHg 89%
21:00 +6°C° 0 mm 1 mps 602 mmHg 89%
22:00 +6°C° 0.1 mm 1 mps 602 mmHg 90%
23:00 +6°C° 0.1 mm 1 mps 602 mmHg 90%

Tomorrow, 28 September, Tuesday

Time Temperature Precipitation Wind Pressure Humidity
00:00 +6°C° 0.1 mm 1 mps 602 mmHg 91%
01:00 +5°C° 0.1 mm 1 mps 602 mmHg 90%
02:00 +5°C° 0.1 mm 1 mps 601 mmHg 89%
03:00 +5°C° 0.1 mm 1 mps 601 mmHg 89%
04:00 +5°C° 0.1 mm 1 mps 601 mmHg 90%
05:00 +5°C° 0.1 mm 1 mps 601 mmHg 92%
06:00 +5°C° 0.1 mm 1 mps 602 mmHg 94%
07:00 +5°C° 0 mm 1 mps 602 mmHg 93%
08:00 +6°C° 0 mm 1 mps 602 mmHg 92%
09:00 +6°C° 0 mm 1 mps 602 mmHg 90%
10:00 +5°C° 0 mm 2 mps 602 mmHg 90%
11:00 +6°C° 0 mm 2 mps 603 mmHg 90%
12:00 +6°C° 0 mm 2 mps 603 mmHg 89%
13:00 +5°C° 0 mm 2 mps 603 mmHg 90%
14:00 +5°C° 0 mm 2 mps 603 mmHg 90%
15:00 +6°C° 0 mm 1 mps 603 mmHg 91%
16:00 +6°C° 0 mm 1 mps 603 mmHg 92%
17:00 +5°C° 0 mm 1 mps 603 mmHg 93%
18:00 +5°C° 0 mm 1 mps 603 mmHg 94%
19:00 +5°C° 0 mm 1 mps 604 mmHg 93%
20:00 +5°C° 0 mm 1 mps 604 mmHg 93%
21:00 +5°C° 0 mm 1 mps 604 mmHg 93%
22:00 +5°C° 0 mm 1 mps 604 mmHg 92%
23:00 +4°C° 0 mm 0 mps 604 mmHg 92%

Day after tomorrow, 29 September, Wednesday

Time Temperature Precipitation Wind Pressure Humidity
00:00 +4°C° 0 mm 0 mps 604 mmHg 92%
01:00 +5°C° 0 mm 1 mps 604 mmHg 92%
02:00 +5°C° 0 mm 1 mps 603 mmHg 92%
03:00 +5°C° 0 mm 1 mps 603 mmHg 93%
04:00 +5°C° 0 mm 1 mps 603 mmHg 93%
05:00 +5°C° 0 mm 1 mps 603 mmHg 94%
06:00 +5°C° 0 mm 1 mps 604 mmHg 94%
07:00 +5°C° 0.1 mm 1 mps 604 mmHg 94%
08:00 +5°C° 0.1 mm 1 mps 604 mmHg 94%
09:00 +6°C° 0.1 mm 1 mps 604 mmHg 94%
10:00 +5°C° 0.4 mm 1 mps 604 mmHg 95%
11:00 +5°C° 0.4 mm 1 mps 604 mmHg 95%
12:00 +5°C° 0.4 mm 1 mps 604 mmHg 96%
13:00 +5°C° 0.5 mm 1 mps 604 mmHg 96%
14:00 +5°C° 0.5 mm 1 mps 604 mmHg 97%
15:00 +5°C° 0.5 mm 1 mps 604 mmHg 98%
16:00 +5°C° 0.4 mm 1 mps 604 mmHg 98%
17:00 +5°C° 0.4 mm 1 mps 604 mmHg 98%
18:00 +5°C° 0.4 mm 1 mps 604 mmHg 98%
19:00 +5°C° 0.5 mm 1 mps 605 mmHg 98%
20:00 +4°C° 0.5 mm 1 mps 605 mmHg 98%
21:00 +4°C° 0.5 mm 1 mps 605 mmHg 98%
22:00 +4°C° 0.7 mm 1 mps 605 mmHg 98%
23:00 +4°C° 0.7 mm 1 mps 605 mmHg 98%

30 September, Thursday

Time Temperature Precipitation Wind Pressure Humidity
00:00 +4°C° 0.7 mm 1 mps 605 mmHg 98%
01:00 +4°C° 0.6 mm 1 mps 605 mmHg 98%
02:00 +4°C° 0.6 mm 1 mps 605 mmHg 98%
03:00 +3°C° 0.6 mm 1 mps 605 mmHg 98%
04:00 +3°C° 0.4 mm 1 mps 605 mmHg 98%
05:00 +3°C° 0.4 mm 1 mps 605 mmHg 98%
06:00 +3°C° 0.4 mm 1 mps 605 mmHg 98%
07:00 +3°C° 0.5 mm 1 mps 606 mmHg 98%
08:00 +3°C° 0.5 mm 1 mps 606 mmHg 98%
09:00 +3°C° 0.5 mm 1 mps 606 mmHg 98%
10:00 +3°C° 1 mm 1 mps 606 mmHg 98%
11:00 +3°C° 1 mm 1 mps 606 mmHg 98%
12:00 +3°C° 1 mm 1 mps 606 mmHg 98%
13:00 +3°C° 0.9 mm 1 mps 606 mmHg 99%
14:00 +3°C° 0.9 mm 1 mps 606 mmHg 99%
15:00 +3°C° 0.9 mm 1 mps 606 mmHg 99%
16:00 +2°C° 0.6 mm 1 mps 606 mmHg 99%
17:00 +2°C° 0.6 mm 1 mps 607 mmHg 99%
18:00 +2°C° 0.6 mm 1 mps 607 mmHg 99%
19:00 +2°C° 0.5 mm 1 mps 607 mmHg 99%
20:00 +2°C° 0.5 mm 1 mps 607 mmHg 99%
21:00 +2°C° 0.5 mm 1 mps 608 mmHg 99%
22:00 +2°C° 0.4 mm 1 mps 607 mmHg 98%
23:00 +2°C° 0.4 mm 1 mps 607 mmHg 98%

1 October, Friday

Time Temperature Precipitation Wind Pressure Humidity
00:00 +1°C° 0.4 mm 1 mps 607 mmHg 98%
01:00 +1°C° 0.3 mm 1 mps 607 mmHg 98%
02:00 +1°C° 0.3 mm 1 mps 607 mmHg 98%
03:00 +1°C° 0.3 mm 1 mps 607 mmHg 98%
04:00 +1°C° 0.2 mm 1 mps 607 mmHg 98%
05:00 +1°C° 0.2 mm 1 mps 607 mmHg 98%
06:00 +1°C° 0.2 mm 1 mps 607 mmHg 98%
07:00 +1°C° 0.2 mm 1 mps 608 mmHg 98%
08:00 +2°C° 0.2 mm 1 mps 608 mmHg 98%
09:00 +2°C° 0.2 mm 1 mps 608 mmHg 98%
10:00 +2°C° 0.2 mm 1 mps 608 mmHg 99%
11:00 +2°C° 0.2 mm 1 mps 608 mmHg 99%
12:00 +2°C° 0.2 mm 1 mps 608 mmHg 99%
13:00 +2°C° 0.1 mm 1 mps 608 mmHg 98%
14:00 +2°C° 0.1 mm 1 mps 608 mmHg 98%
15:00 +2°C° 0.1 mm 1 mps 608 mmHg 98%
16:00 +2°C° 0 mm 1 mps 608 mmHg 98%
17:00 +2°C° 0 mm 1 mps 608 mmHg 98%
18:00 +2°C° 0 mm 1 mps 609 mmHg 97%
19:00 +2°C° 0 mm 1 mps 609 mmHg 97%
20:00 +2°C° 0 mm 1 mps 609 mmHg 97%
21:00 +2°C° 0 mm 1 mps 609 mmHg 97%
22:00 +1°C° 0 mm 1 mps 609 mmHg 96%
23:00 +1°C° 0 mm 1 mps 608 mmHg 95%

2 October, Saturday

Time Temperature Precipitation Wind Pressure Humidity
00:00 +1°C° 0 mm 1 mps 608 mmHg 94%
01:00 +1°C° 0 mm 1 mps 608 mmHg 94%
02:00 +1°C° 0 mm 1 mps 608 mmHg 93%
03:00 +1°C° 0 mm 1 mps 608 mmHg 92%
04:00 -1°C° 0 mm 2 mps 608 mmHg 92%
05:00 -2°C° 0 mm 2 mps 608 mmHg 92%
06:00 -2°C° 0 mm 2 mps 608 mmHg 92%
07:00 -1°C° 0 mm 2 mps 608 mmHg 91%
08:00 +1°C° 0 mm 2 mps 608 mmHg 91%
09:00 +2°C° 0 mm 2 mps 608 mmHg 90%
10:00 +3°C° 0 mm 2 mps 608 mmHg 89%
11:00 +4°C° 0 mm 2 mps 608 mmHg 88%
12:00 +4°C° 0 mm 2 mps 608 mmHg 86%
13:00 +4°C° 0 mm 2 mps 608 mmHg 87%
14:00 +4°C° 0 mm 2 mps 608 mmHg 88%
15:00 +4°C° 0 mm 2 mps 608 mmHg 89%
16:00 +3°C° 0 mm 2 mps 608 mmHg 89%
17:00 +2°C° 0 mm 2 mps 608 mmHg 90%
18:00 +2°C° 0 mm 2 mps 608 mmHg 90%
19:00 +1°C° 0 mm 2 mps 608 mmHg 89%
20:00 +1°C° 0 mm 2 mps 608 mmHg 87%
21:00 0°C° 0 mm 3 mps 608 mmHg 86%
22:00 0°C° 0 mm 3 mps 608 mmHg 85%
23:00 0°C° 0 mm 3 mps 607 mmHg 84%
Show more

We Need Your Consent

Meteoprog and our Service Providers may store and access personal data such as cookies, device identifiers or other similar technologies on your device and process such data to personalise content and ads, as well as provide social media features and to analyse the traffic.

  • Store and/or access information on your device

    Cookies, device identifiers or other information can be stored or accessed on your device for the purposes indicated above.

  • Personalised ads and content, ad and content measurement, audience insights, and products development

    Ads and content can be personalised based on a profile. More data can be added to better personalise ads and content. Ad and content performance can be measured. Insights about the audience who saw the ads and content can be derived. Such data can be used to develop or improve user’s experience, systems and software.

By clicking ‘I Agree’ you will allow the use of indicated cookies, device identifiers, web beacons or other similar technologies. Your settings can be changed in the browser on your device.

For certain purposes, legitimate interests may be relied on, rather than consent. You can read more about this in our Privacy and Cookie Policy.